Regional Weather Roundup
Issued by NWS Charleston, SC

Current Version | Previous Version | Graphics & Text | Print | Product List | Glossary On
Versions: 1 2 3 4 5 6 7 8 9 10 11 12 13 14 15 16 17 18 19 20 21 22 23 24 25 26 27 28 29 30 31 32 33 34 35 36 37 38 39 40 41 42 43 44 45 46 47 48 49 50
000 ASUS42 KCHS 292127 RWRCHS REGIONAL WEATHER ROUNDUP NATIONAL WEATHER SERVICE CHARLESTON SC 500 PM EDT MON JUN 29 2015 NOTE: "FAIR" INDICATES FEW OR NO CLOUDS BELOW 12,000 FEET WITH NO SIGNIFICANT WEATHER AND/OR OBSTRUCTIONS TO VISIBILITY. NOT ALL STATIONS ARE QUALITY CONTROLLED BY THE NATIONAL WEATHER SERVICE. USE DATA WITH CAUTION...ESPECIALLY DEWPOINT OBSERVATIONS. SCZ027-030-031-034>040-042>050-292200- ...SOUTHEAST SOUTH CAROLINA... CITY SKY/WX TMP DP RH WIND PRES REMARKS N CHARLESTON MOSUNNY 89 59 36 W9 29.94F WATERFRONT PAR N/A 88 60 38 VRB2 29.93S MOUNT PLEASANT FAIR 90 61 37 W8 29.94S JOHNS ISLAND FAIR 88 63 42 SW6 29.95S PINOPOLIS NOT AVBL MONCKS CORNER FAIR 90 54 29 W6 29.94S SUMMERVILLE NOT AVBL BEAUFORT MCAS PTSUNNY 87 60 40 W3 29.96S BEAUFORT ARPT N/A 88 63 42 W5 29.96S HILTON HEAD IS PTSUNNY 86 61 42 W8 29.97F WALTERBORO MOCLDY 86 55 35 SW6 29.96S ALLENDALE FAIR 90 57 33 VRB5 29.95S ...SOUTHERN MIDLANDS AND PEE DEE... CITY SKY/WX TMP DP RH WIND PRES REMARKS GEORGETOWN NOT AVBL KINGSTREE NOT AVBL ORANGEBURG MOSUNNY 90 50 25 W15G22 29.94F BARNWELL FAIR 91 59 33 W9 29.95S HX 90 AIKEN FAIR N/A N/A N/A W9 30.00S MANNING FAIR N/A N/A N/A W7G16 29.93R COLUMBIA PTSUNNY 88 56 33 W8 29.93F SUMTER MOSUNNY 90 56 31 W10 29.91F FLORENCE SUNNY 90 52 27 W8 29.92F MYRTLE BEACH NOT AVBL N MYRTLE BEACH SUNNY 86 72 62 S12G20 29.93F HX 92 $$ GAZ063-065-086>088-099>101-113>116-118-119-134>141-150-292200- ...SOUTHEAST GEORGIA... CITY SKY/WX TMP DP RH WIND PRES REMARKS SAVANNAH ARPT CLOUDY 87 61 41 SW8 29.96F HUNTER AAF CLOUDY 88 65 47 W6 29.95S FORT STEWART PTSUNNY 88 60 39 W6 29.95F STATESBORO PTSUNNY 88 65 47 CALM 29.95F SYLVANIA MOCLDY 89 64 43 W6 29.96F HX 91 CLAXTON FAIR 88 68 51 CALM 29.96F HX 91 ...CSRA...CENTRAL AND FAR SOUTHEAST GEORGIA... CITY SKY/WX TMP DP RH WIND PRES REMARKS THOMSON PTSUNNY 89 62 40 NW7 30.00F AUGUSTA-BUSH PTSUNNY 90 55 30 NW10 29.94F AUGUSTA-DANIEL PTSUNNY 90 56 31 NW8 29.97S SWAINSBORO FAIR 91 61 35 W6 29.97F HX 91 VIDALIA MOSUNNY 90 61 37 NW7 29.97F EASTMAN MOCLDY 88 62 41 SW8 30.00S HAZLEHURST FAIR 89 63 41 SW7 29.97F ALMA MOSUNNY 87 63 44 W9 29.98F WAYCROSS PTSUNNY 90 67 46 W6 29.99F HX 93 JESUP FAIR 90 64 43 W6 29.98F HX 91 BAXLEY FAIR 90 63 40 SW6 29.98S HX 90 BRUNSWICK CLOUDY 86 70 58 W6 29.99S HX 90 SAINT SIMONS CLOUDY 84 70 62 W8 29.98F $$ SCZ027-028-034-036>038-045-046-048>050-GAZ119-141-292200- ...LAKE AND SUPPLEMENTAL COASTAL OBSERVATIONS... STATION/POSITION TIME TEMP WIND PRES WAVE SWELL AIR SEA DIR/SP/G HT/PER HT/PER/DIR (UTC) (F) (DEG/KT/KT) (MB) (FT/S) (FT/S/D) UPR LAKE MARION NOT AVBL WINYAH BAY 2000 88 280/ 6 1013.0 LAKE MURRAY 2100 85 260/ 9/ 15 1012.9F ACE BASIN NERRS 2000 87 260/ 3 1015.0S FORT PULASKI 2100 86 84 260/ 5/ 8 1015.1F SAPELO ISLAND 2100 86 310/ 7 1015.0S $$ ANZ835-935-AMZ111-154-330-350-352-354-370-450-454-472-292200- ...C-MAN AND BUOY OBSERVATIONS... STATION/POSITION TIME TEMP WIND PRES WAVE SWELL AIR SEA DIR/SP/G HT/PER HT/PER/DIR (UTC) (F) (DEG/KT/KT) (MB) (FT/S) (FT/S/D) BUOY 41004 2050 82 83 220/ 12/ 14 1014.1F 4/ 7 3/ 7 BUOY 41008 2050 80 81 200/ 8/ 8 1015.3F 2/ 9 2/110/ 9 FOLLY BEACH CMAN 2100 83 200/ 15/ 18 1014.4F CAPERS NEARSHORE 2008 82 220/ 16/ 19 1014.5F FRIPP NEARSHORE 2000 82 200/ 14/ 16 1014.5F STATION/POSITION TIME TEMP WIND PRES WAVE SWELL AIR SEA DIR/SP/G HT/PER HT/PER/DIR (UTC) (F) (DEG/KT/KT) (MB) (FT/S) (FT/S/D) 5E ST. MARYS GA 2021 78 N/A 2/ 8 FRYING PAN BUOY 2050 81 81 200/ 10/ 12 1014.2F 4/ 8 3/140/ 8 BUOY 41025 2050 80 81 230/ 8/ 10 1014.0F 4/ 8 3/150/ 8 CAPE LOOKOUT NC 2100 81 200/ 9/ 12 1013.7F BUOY 41002 2050 80 80 210/ 16/ 19 1017.4R 6/ 7 BUOY 41010 2020 84 85 230/ 12/ 14 1017.9R ST AUGUSTINE FL 2100 83 74 290/ 9/ 12 1017.1S $$

USA.gov is the U.S. government's official web portal to all federal, state and local government web resources and services.